Rawlins, WY

4:55 PM MDT on March 24, 2017 (GMT -0600)
Rawlins Municipal

Weather History for KRWL - September, 2013

Change the Weather History Date:

Tuesday, September 10, 2013

  Actual Average Record
Temperature  
Mean Temperature 58 °F 58 °F  
Max Temperature 64 °F 73 °F 90 °F (1996)
Min Temperature 51 °F 42 °F 25 °F (2016)
Degree Days  
Heating Degree Days 7 7  
Month to date heating degree days 13 58  
Since 1 July heating degree days 21 151  
Cooling Degree Days 0 0  
Month to date cooling degree days 49 2  
Year to date cooling degree days 371 183  
Growing Degree Days 8 (Base 50)    
Moisture  
Dew Point 51 °F    
Average Humidity 76    
Maximum Humidity 96    
Minimum Humidity 56    
Precipitation  
Precipitation 0.09 in 0.04 in 0.67 in (2008)
Month to date precipitation 0.27 0.30  
Year to date precipitation 4.04 6.85  
Sea Level Pressure  
Sea Level Pressure 30.10 in    
Wind  
Wind Speed 11 mph (NE)    
Max Wind Speed 23 mph    
Max Gust Speed 30 mph    
Visibility 10 miles    
Events Rain    
T = Trace of Precipitation, MM = Missing Value Source: NWS Daily Summary

Daily Weather History Graph

Daily Weather History Graph

Search for Another Location

Airport or City:

Trip Planner

Search our weather history database for the weather conditions in past years. The results will help you decide how hot, cold, wet, or windy it might be!

Date:

Astronomy

Sep. 10, 2013 Rise Set
Actual Time 6:44 AM MDT 7:26 PM MDT
Civil Twilight 6:16 AM MDT 7:54 PM MDT
Nautical Twilight 5:42 AM MDT 8:27 PM MDT
Astronomical Twilight 5:08 AM MDT 9:02 PM MDT
Moon 12:18 PM MDT (9/10) 10:26 PM MDT (9/10)
Length of Visible Light 13h 38m
Length of Day
12h 42m
Waxing Crescent, 29% of the Moon is Illuminated
Sep 10
Waxing Crescent
Sep 12
First Quarter
Sep 19
Full
Sep 26
Last Quarter
Oct 4
New

Hourly Weather History & Observations

Time (MDT) Temp. Dew Point Humidity Pressure Visibility Wind Dir Wind Speed Gust Speed Precip Events Conditions
12:53 AM 52.0 °F 50.0 °F 93% 29.97 in 10.0 mi NNW 3.5 mph - N/A   Overcast
1:53 AM 53.1 °F 50.0 °F 89% 29.98 in 10.0 mi NNW 4.6 mph - N/A   Overcast
2:53 AM 52.0 °F 48.9 °F 89% 29.99 in 10.0 mi NNW 5.8 mph - N/A   Clear
3:53 AM 53.1 °F 48.9 °F 86% 29.97 in 10.0 mi NNW 4.6 mph - N/A   Scattered Clouds
4:53 AM 53.1 °F 48.9 °F 86% 29.97 in 10.0 mi Calm Calm - N/A   Scattered Clouds
5:53 AM 53.1 °F 48.9 °F 86% 29.99 in 10.0 mi NE 3.5 mph - N/A   Mostly Cloudy
6:53 AM 53.1 °F 48.9 °F 86% 30.02 in 10.0 mi ENE 5.8 mph - N/A   Overcast
7:53 AM 53.1 °F 48.9 °F 86% 30.04 in 10.0 mi ENE 8.1 mph - 0.01 in Rain Light Rain
8:53 AM 53.1 °F 51.1 °F 93% 30.04 in 8.0 mi ENE 12.7 mph - 0.02 in Rain Light Rain
9:53 AM 54.0 °F 52.0 °F 93% 30.06 in 10.0 mi East 8.1 mph - 0.01 in Rain Light Rain
10:02 AM 53.6 °F 51.8 °F 94% 30.25 in 10.0 mi ESE 6.9 mph - 0.00 in Rain Light Rain
10:15 AM 53.6 °F 51.8 °F 94% 30.26 in 10.0 mi SSE 3.5 mph - 0.00 in Rain Light Rain
10:53 AM 55.0 °F 52.0 °F 89% 30.08 in 9.0 mi ENE 5.8 mph - 0.00 in Rain Light Rain
11:53 AM 59.0 °F 53.1 °F 81% 30.06 in 10.0 mi ENE 16.1 mph - 0.01 in   Overcast
12:53 PM 60.1 °F 51.1 °F 72% 30.06 in 10.0 mi ENE 20.7 mph 26.5 mph N/A   Overcast
1:53 PM 64.0 °F 48.9 °F 58% 30.03 in 10.0 mi ENE 23.0 mph 27.6 mph N/A   Mostly Cloudy
2:53 PM 61.0 °F 48.0 °F 62% 30.04 in 10.0 mi East 18.4 mph 25.3 mph N/A   Overcast
3:53 PM 62.1 °F 48.0 °F 60% 30.03 in 10.0 mi ENE 17.3 mph 21.9 mph N/A   Overcast
4:53 PM 61.0 °F 48.0 °F 62% 30.04 in 10.0 mi ENE 13.8 mph - 0.00 in Rain Light Rain
5:53 PM 59.0 °F 48.9 °F 69% 30.04 in 10.0 mi ENE 12.7 mph - 0.01 in   Overcast
6:53 PM 57.9 °F 51.1 °F 78% 30.06 in 10.0 mi East 10.4 mph - 0.00 in Rain Light Rain
7:35 PM 57.2 °F 51.8 °F 82% 30.27 in 10.0 mi East 11.5 mph - 0.00 in Rain Light Rain
7:53 PM 55.9 °F 52.0 °F 87% 30.09 in 10.0 mi East 10.4 mph - 0.00 in Rain Light Rain
8:36 PM 55.4 °F 51.8 °F 88% 30.27 in 10.0 mi NE 9.2 mph - 0.02 in Rain Light Rain
8:53 PM 54.0 °F 52.0 °F 93% 30.09 in 10.0 mi NE 8.1 mph - 0.03 in Rain Light Rain
9:44 PM 55.4 °F 51.8 °F 88% 30.28 in 10.0 mi NNE 9.2 mph - 0.00 in   Overcast
9:53 PM 55.0 °F 52.0 °F 89% 30.09 in 10.0 mi NNE 9.2 mph - 0.00 in   Overcast
10:14 PM 55.4 °F 51.8 °F 88% 30.28 in 10.0 mi NNE 9.2 mph - N/A   Overcast
10:51 PM 53.6 °F 51.8 °F 94% 30.27 in 10.0 mi NE 11.5 mph - N/A   Overcast
10:53 PM 54.0 °F 51.1 °F 90% 30.08 in 10.0 mi NE 12.7 mph - N/A   Overcast
11:05 PM 53.6 °F 51.8 °F 94% 30.27 in 10.0 mi NE 11.5 mph - 0.00 in Rain Light Rain
11:53 PM 53.1 °F 50.0 °F 89% 30.08 in 10.0 mi NE 11.5 mph - 0.00 in   Mostly Cloudy